Redding, CA

7:12 PM PST on December 16, 2017 (GMT -0800)
Redding Municipal

Weather History for KRDD - February, 2012

Change the Weather History Date:

Thursday, February 16, 2012

  Actual Average Record
Temperature  
Mean Temperature 54 °F -  
Max Temperature 68 °F 60 °F 78 °F (2015)
Min Temperature 40 °F 40 °F 23 °F (2006)
Degree Days  
Heating Degree Days 11    
Month to date heating degree days 230  
Cooling Degree Days 0    
Month to date cooling degree days 0  
Year to date cooling degree days 0  
Growing Degree Days 4 (Base 50)    
Moisture  
Dew Point 26 °F    
Average Humidity 39    
Maximum Humidity 60    
Minimum Humidity 18    
Precipitation  
Precipitation 0.00 in 0.20 in 2.29 in (2004)
Month to date precipitation 0.91 3.18  
Year to date precipitation 6.73 9.14  
Since 1 July precipitation 13.06  
Sea Level Pressure  
Sea Level Pressure 30.23 in    
Wind  
Wind Speed 6 mph (North)    
Max Wind Speed 16 mph    
Max Gust Speed 21 mph    
Visibility 10 miles    
Events      
T = Trace of Precipitation, MM = Missing Value Source: NWS Daily Summary

Daily Weather History Graph

Daily Weather History Graph

Search for Another Location

Airport or City:

Trip Planner

Search our weather history database for the weather conditions in past years. The results will help you decide how hot, cold, wet, or windy it might be!

Date:

Astronomy

Feb. 16, 2012 Rise Set
Actual Time 7:01 AM PST 5:45 PM PST
Civil Twilight 6:34 AM PST 6:13 PM PST
Nautical Twilight 6:02 AM PST 6:44 PM PST
Astronomical Twilight 5:30 AM PST 7:16 PM PST
Moon 3:03 AM PST (2/16) 12:41 PM PST (2/16)
Length of Visible Light 11h 38m
Length of Day
10h 43m
Waning Crescent, 27% of the Moon is Illuminated
Feb 16
Waning Crescent
Feb 21
New
Feb 29
First Quarter
Mar 8
Full
Mar 14
Last Quarter

Hourly Weather History & Observations

Time (PST) Temp. Windchill Dew Point Humidity Pressure Visibility Wind Dir Wind Speed Gust Speed Precip Events Conditions
12:53 AM 44.1 °F 39.0 °F 24.1 °F 45% 30.28 in 10.0 mi NNW 9.2 mph - N/A   Clear
1:53 AM 44.1 °F 39.0 °F 24.1 °F 45% 30.28 in 10.0 mi NW 9.2 mph - N/A   Clear
2:53 AM 42.8 °F - 24.8 °F 49% 30.29 in 10.0 mi Calm Calm - N/A   Clear
3:53 AM 46.9 °F - 23.0 °F 39% 30.27 in 10.0 mi North 10.4 mph - N/A   Clear
4:53 AM 46.9 °F - 21.9 °F 37% 30.27 in 10.0 mi NNW 4.6 mph - N/A   Clear
5:53 AM 44.1 °F 40.1 °F 24.1 °F 45% 30.28 in 10.0 mi NW 6.9 mph - N/A   Clear
6:53 AM 46.0 °F 43.9 °F 23.0 °F 40% 30.29 in 10.0 mi NNW 4.6 mph - N/A   Clear
7:53 AM 41.0 °F 39.0 °F 28.0 °F 60% 30.30 in 10.0 mi East 3.5 mph - N/A   Clear
8:53 AM 52.0 °F - 23.0 °F 32% 30.30 in 10.0 mi North 10.4 mph - N/A   Clear
9:53 AM 55.0 °F - 23.0 °F 29% 30.30 in 10.0 mi North 11.5 mph - N/A   Clear
10:53 AM 57.9 °F - 23.0 °F 26% 30.29 in 10.0 mi NNE 8.1 mph - N/A   Clear
11:53 AM 60.1 °F - 21.9 °F 23% 30.26 in 10.0 mi North 9.2 mph - N/A   Clear
12:53 PM 64.0 °F - 23.0 °F 21% 30.23 in 10.0 mi North 11.5 mph - N/A   Clear
1:53 PM 66.0 °F - 23.0 °F 20% 30.20 in 10.0 mi North 6.9 mph - N/A   Clear
2:53 PM 66.9 °F - 21.0 °F 17% 30.18 in 10.0 mi North 8.1 mph - N/A   Clear
3:53 PM 68.0 °F - 18.0 °F 15% 30.16 in 10.0 mi NNW 5.8 mph - N/A   Clear
4:53 PM 66.2 °F - 24.8 °F 21% 30.16 in 10.0 mi Calm Calm - N/A   Clear
5:53 PM 62.1 °F - 28.0 °F 28% 30.16 in 10.0 mi Calm Calm - N/A   Clear
6:53 PM 55.0 °F - 28.0 °F 35% 30.17 in 10.0 mi Calm Calm - N/A   Clear
7:53 PM 51.1 °F - 32.0 °F 48% 30.17 in 10.0 mi Calm Calm - N/A   Clear
8:53 PM 48.0 °F - 33.1 °F 56% 30.18 in 10.0 mi NNE 3.5 mph - N/A   Clear
9:53 PM 46.9 °F - 33.1 °F 59% 30.18 in 10.0 mi NNW 3.5 mph - N/A   Clear
10:53 PM 45.0 °F - 33.1 °F 63% 30.19 in 10.0 mi Calm Calm - N/A   Clear
11:53 PM 44.1 °F - 33.1 °F 65% 30.19 in 10.0 mi Calm Calm - N/A   Clear